Year,Month,Day,Hour,Minute,Value (Times are PST for temperature in C)
2008,08,11,00,00,15.80
2008,08,11,00,01,15.80
2008,08,11,00,02,15.80
2008,08,11,00,03,15.80
2008,08,11,00,04,15.70
2008,08,11,00,05,15.70
2008,08,11,00,06,15.70
2008,08,11,00,07,15.70
2008,08,11,00,08,15.70
2008,08,11,00,09,15.70
2008,08,11,00,10,15.70
2008,08,11,00,11,15.70
2008,08,11,00,12,15.60
2008,08,11,00,13,15.60
2008,08,11,00,14,15.60
2008,08,11,00,15,15.60
2008,08,11,00,16,15.60
2008,08,11,00,17,15.60
2008,08,11,00,18,15.50
2008,08,11,00,19,15.50
2008,08,11,00,20,15.50
2008,08,11,00,21,15.50
2008,08,11,00,22,15.50
2008,08,11,00,23,15.40
2008,08,11,00,24,15.40
2008,08,11,00,25,15.40
2008,08,11,00,26,15.40
2008,08,11,00,27,15.30
2008,08,11,00,28,15.30
2008,08,11,00,29,15.30
2008,08,11,00,30,15.30
2008,08,11,00,31,15.30
2008,08,11,00,32,15.30
2008,08,11,00,33,15.30
2008,08,11,00,34,15.30
2008,08,11,00,35,15.30
2008,08,11,00,36,15.20
2008,08,11,00,37,15.20
2008,08,11,00,38,15.20
2008,08,11,00,39,15.20
2008,08,11,00,40,15.20
2008,08,11,00,41,15.20
2008,08,11,00,42,15.20
2008,08,11,00,43,15.20
2008,08,11,00,44,15.20
2008,08,11,00,45,15.30
2008,08,11,00,46,15.30
2008,08,11,00,47,15.30
2008,08,11,00,48,15.30
2008,08,11,00,49,15.30
2008,08,11,00,50,15.30
2008,08,11,00,51,15.20
2008,08,11,00,52,15.20
2008,08,11,00,53,15.20
2008,08,11,00,54,15.20
2008,08,11,00,55,15.20
2008,08,11,00,56,15.20
2008,08,11,00,57,15.20
2008,08,11,00,58,15.20
2008,08,11,00,59,15.20
2008,08,11,01,00,15.10
2008,08,11,01,01,15.10
2008,08,11,01,02,15.10
2008,08,11,01,03,15.10
2008,08,11,01,04,15.10
2008,08,11,01,05,15.00
2008,08,11,01,06,15.00
2008,08,11,01,07,15.00
2008,08,11,01,08,15.00
2008,08,11,01,09,15.00
2008,08,11,01,10,15.00
2008,08,11,01,11,15.00
2008,08,11,01,12,15.00
2008,08,11,01,13,14.90
2008,08,11,01,14,14.90
2008,08,11,01,15,14.90
2008,08,11,01,16,14.90
2008,08,11,01,17,14.90
2008,08,11,01,18,14.90
2008,08,11,01,19,14.80
2008,08,11,01,20,14.80
2008,08,11,01,21,14.80
2008,08,11,01,22,14.80
2008,08,11,01,23,14.80
2008,08,11,01,24,14.80
2008,08,11,01,25,14.70
2008,08,11,01,26,14.70
2008,08,11,01,27,14.70
2008,08,11,01,28,14.70
2008,08,11,01,29,14.70
2008,08,11,01,30,14.60
2008,08,11,01,31,14.60
2008,08,11,01,32,14.60
2008,08,11,01,33,14.60
2008,08,11,01,34,14.60
2008,08,11,01,35,14.50
2008,08,11,01,36,14.50
2008,08,11,01,37,14.50
2008,08,11,01,38,14.60
2008,08,11,01,39,14.60
2008,08,11,01,40,14.60
2008,08,11,01,41,14.60
2008,08,11,01,42,14.60
2008,08,11,01,43,14.60
2008,08,11,01,44,14.60
2008,08,11,01,45,14.50
2008,08,11,01,46,14.50
2008,08,11,01,47,14.50
2008,08,11,01,48,14.40
2008,08,11,01,49,14.40
2008,08,11,01,50,14.40
2008,08,11,01,51,14.40
2008,08,11,01,52,14.30
2008,08,11,01,53,14.30
2008,08,11,01,54,14.30
2008,08,11,01,55,14.30
2008,08,11,01,56,14.30
2008,08,11,01,57,14.30
2008,08,11,01,58,14.20
2008,08,11,01,59,14.20
2008,08,11,02,00,14.20
2008,08,11,02,01,14.20
2008,08,11,02,02,14.20
2008,08,11,02,03,14.20
2008,08,11,02,04,14.20
2008,08,11,02,05,14.20
2008,08,11,02,06,14.20
2008,08,11,02,07,14.20
2008,08,11,02,08,14.20
2008,08,11,02,09,14.20
2008,08,11,02,10,14.20
2008,08,11,02,11,14.20
2008,08,11,02,12,14.20
2008,08,11,02,13,14.20
2008,08,11,02,14,14.20
2008,08,11,02,15,14.20
2008,08,11,02,16,14.20
2008,08,11,02,17,14.20
2008,08,11,02,18,14.20
2008,08,11,02,19,14.20
2008,08,11,02,20,14.20
2008,08,11,02,21,14.20
2008,08,11,02,22,14.20
2008,08,11,02,23,14.10
2008,08,11,02,24,14.10
2008,08,11,02,25,14.10
2008,08,11,02,26,14.10
2008,08,11,02,27,14.10
2008,08,11,02,28,14.10
2008,08,11,02,29,14.00
2008,08,11,02,30,14.00
2008,08,11,02,31,14.00
2008,08,11,02,32,14.00
2008,08,11,02,33,14.00
2008,08,11,02,34,14.00
2008,08,11,02,35,14.00
2008,08,11,02,36,14.00
2008,08,11,02,37,13.90
2008,08,11,02,38,13.90
2008,08,11,02,39,13.90
2008,08,11,02,40,13.90
2008,08,11,02,41,13.90
2008,08,11,02,42,13.90
2008,08,11,02,43,13.80
2008,08,11,02,44,13.80
2008,08,11,02,45,13.80
2008,08,11,02,46,13.80
2008,08,11,02,47,13.70
2008,08,11,02,48,13.70
2008,08,11,02,49,13.70
2008,08,11,02,50,13.70
2008,08,11,02,51,13.70
2008,08,11,02,52,13.70
2008,08,11,02,53,13.70
2008,08,11,02,54,13.70
2008,08,11,02,55,13.70
2008,08,11,02,56,13.70
2008,08,11,02,57,13.70
2008,08,11,02,58,13.70
2008,08,11,02,59,13.70
2008,08,11,03,00,13.70
2008,08,11,03,01,13.70
2008,08,11,03,02,13.70
2008,08,11,03,03,13.70
2008,08,11,03,04,13.70
2008,08,11,03,05,13.70
2008,08,11,03,06,13.70
2008,08,11,03,07,13.70
2008,08,11,03,08,13.70
2008,08,11,03,09,13.70
2008,08,11,03,10,13.80
2008,08,11,03,11,13.80
2008,08,11,03,12,13.80
2008,08,11,03,13,13.80
2008,08,11,03,14,13.80
2008,08,11,03,15,13.80
2008,08,11,03,16,13.80
2008,08,11,03,17,13.80
2008,08,11,03,18,13.80
2008,08,11,03,19,13.80
2008,08,11,03,20,13.80
2008,08,11,03,21,13.90
2008,08,11,03,22,13.90
2008,08,11,03,23,13.90
2008,08,11,03,24,13.90
2008,08,11,03,25,13.90
2008,08,11,03,26,13.90
2008,08,11,03,27,13.90
2008,08,11,03,28,13.90
2008,08,11,03,29,13.90
2008,08,11,03,30,13.90
2008,08,11,03,31,14.00
2008,08,11,03,32,14.00
2008,08,11,03,33,14.00
2008,08,11,03,34,14.00
2008,08,11,03,35,14.00
2008,08,11,03,36,14.00
2008,08,11,03,37,14.00
2008,08,11,03,38,14.00
2008,08,11,03,39,14.00
2008,08,11,03,40,13.90
2008,08,11,03,41,13.90
2008,08,11,03,42,13.90
2008,08,11,03,43,13.90
2008,08,11,03,44,13.80
2008,08,11,03,45,13.80
2008,08,11,03,46,13.80
2008,08,11,03,47,13.80
2008,08,11,03,48,13.70
2008,08,11,03,49,13.70
2008,08,11,03,50,13.70
2008,08,11,03,51,13.70
2008,08,11,03,52,13.70
2008,08,11,03,53,13.70
2008,08,11,03,54,13.60
2008,08,11,03,55,13.60
2008,08,11,03,56,13.60
2008,08,11,03,57,13.60
2008,08,11,03,58,13.60
2008,08,11,03,59,13.60
2008,08,11,04,00,13.50
2008,08,11,04,01,13.50
2008,08,11,04,02,13.50
2008,08,11,04,03,13.50
2008,08,11,04,04,13.50
2008,08,11,04,05,13.40
2008,08,11,04,06,13.40
2008,08,11,04,07,13.40
2008,08,11,04,08,13.40
2008,08,11,04,09,13.40
2008,08,11,04,10,13.30
2008,08,11,04,11,13.30
2008,08,11,04,12,13.30
2008,08,11,04,13,13.30
2008,08,11,04,14,13.30
2008,08,11,04,15,13.30
2008,08,11,04,16,13.20
2008,08,11,04,17,13.20
2008,08,11,04,18,13.20
2008,08,11,04,19,13.20
2008,08,11,04,20,13.20
2008,08,11,04,21,13.20
2008,08,11,04,22,13.20
2008,08,11,04,23,13.10
2008,08,11,04,24,13.10
2008,08,11,04,25,13.10
2008,08,11,04,26,13.10
2008,08,11,04,27,13.10
2008,08,11,04,28,13.10
2008,08,11,04,29,13.10
2008,08,11,04,30,13.10
2008,08,11,04,31,13.10
2008,08,11,04,32,13.10
2008,08,11,04,33,13.10
2008,08,11,04,34,13.10
2008,08,11,04,35,13.00
2008,08,11,04,36,13.00
2008,08,11,04,37,13.00
2008,08,11,04,38,13.00
2008,08,11,04,39,13.00
2008,08,11,04,40,13.00
2008,08,11,04,41,13.00
2008,08,11,04,42,13.00
2008,08,11,04,43,13.00
2008,08,11,04,44,13.00
2008,08,11,04,45,13.00
2008,08,11,04,46,13.00
2008,08,11,04,47,13.00
2008,08,11,04,48,13.00
2008,08,11,04,49,13.00
2008,08,11,04,50,13.00
2008,08,11,04,51,13.00
2008,08,11,04,52,13.00
2008,08,11,04,53,13.00
2008,08,11,04,54,13.00
2008,08,11,04,55,13.00
2008,08,11,04,56,13.00
2008,08,11,04,57,13.00
2008,08,11,04,58,13.00
2008,08,11,04,59,13.00
2008,08,11,05,00,13.00
2008,08,11,05,01,13.00
2008,08,11,05,02,13.00
2008,08,11,05,03,13.00
2008,08,11,05,04,13.00
2008,08,11,05,05,13.00
2008,08,11,05,06,13.00
2008,08,11,05,07,13.00
2008,08,11,05,08,13.00
2008,08,11,05,09,13.00
2008,08,11,05,10,13.00
2008,08,11,05,11,13.00
2008,08,11,05,12,13.00
2008,08,11,05,13,13.00
2008,08,11,05,14,13.00
2008,08,11,05,15,13.00
2008,08,11,05,16,12.90
2008,08,11,05,17,13.00
2008,08,11,05,18,13.00
2008,08,11,05,19,13.00
2008,08,11,05,20,13.00
2008,08,11,05,21,13.00
2008,08,11,05,22,13.00
2008,08,11,05,23,13.00
2008,08,11,05,24,13.00
2008,08,11,05,25,12.90
2008,08,11,05,26,12.90
2008,08,11,05,27,12.90
2008,08,11,05,28,12.90
2008,08,11,05,29,12.90
2008,08,11,05,30,12.90
2008,08,11,05,31,12.90
2008,08,11,05,32,12.90
2008,08,11,05,33,12.90
2008,08,11,05,34,12.90
2008,08,11,05,35,12.90
2008,08,11,05,36,12.90
2008,08,11,05,37,12.80
2008,08,11,05,38,12.80
2008,08,11,05,39,12.80
2008,08,11,05,40,12.80
2008,08,11,05,41,12.80
2008,08,11,05,42,12.80
2008,08,11,05,43,12.80
2008,08,11,05,44,12.80
2008,08,11,05,45,12.80
2008,08,11,05,46,12.80
2008,08,11,05,47,12.70
2008,08,11,05,48,12.70
2008,08,11,05,49,12.70
2008,08,11,05,50,12.60
2008,08,11,05,51,12.60
2008,08,11,05,52,12.60
2008,08,11,05,53,12.60
2008,08,11,05,54,12.60
2008,08,11,05,55,12.50
2008,08,11,05,56,12.50
2008,08,11,05,57,12.50
2008,08,11,05,58,12.50
2008,08,11,05,59,12.50
2008,08,11,06,00,12.50
2008,08,11,06,01,12.50
2008,08,11,06,02,12.50
2008,08,11,06,03,12.50
2008,08,11,06,04,12.50
2008,08,11,06,05,12.50
2008,08,11,06,06,12.50
2008,08,11,06,07,12.50
2008,08,11,06,08,12.50
2008,08,11,06,09,12.50
2008,08,11,06,10,12.50
2008,08,11,06,11,12.50
2008,08,11,06,12,12.50
2008,08,11,06,13,12.50
2008,08,11,06,14,12.50
2008,08,11,06,15,12.50
2008,08,11,06,16,12.50
2008,08,11,06,17,12.40
2008,08,11,06,18,12.40
2008,08,11,06,19,12.40
2008,08,11,06,20,12.40
2008,08,11,06,21,12.40
2008,08,11,06,22,12.40
2008,08,11,06,23,12.40
2008,08,11,06,24,12.30
2008,08,11,06,25,12.30
2008,08,11,06,26,12.30
2008,08,11,06,27,12.30
2008,08,11,06,28,12.30
2008,08,11,06,29,12.30
2008,08,11,06,30,12.40
2008,08,11,06,31,12.40
2008,08,11,06,32,12.40
2008,08,11,06,33,12.40
2008,08,11,06,34,12.50
2008,08,11,06,35,12.50
2008,08,11,06,36,12.60
2008,08,11,06,37,12.60
2008,08,11,06,38,12.70
2008,08,11,06,39,12.80
2008,08,11,06,40,12.80
2008,08,11,06,41,12.80
2008,08,11,06,42,12.90
2008,08,11,06,43,12.90
2008,08,11,06,44,13.00
2008,08,11,06,45,13.00
2008,08,11,06,46,13.10
2008,08,11,06,47,13.10
2008,08,11,06,48,13.20
2008,08,11,06,49,13.20
2008,08,11,06,50,13.30
2008,08,11,06,51,13.30
2008,08,11,06,52,13.30
2008,08,11,06,53,13.40
2008,08,11,06,54,13.40
2008,08,11,06,55,13.50
2008,08,11,06,56,13.50
2008,08,11,06,57,13.60
2008,08,11,06,58,13.60
2008,08,11,06,59,13.70
2008,08,11,07,00,13.70
2008,08,11,07,01,13.70
2008,08,11,07,02,13.70
2008,08,11,07,03,13.70
2008,08,11,07,04,13.70
2008,08,11,07,05,13.70
2008,08,11,07,06,13.80
2008,08,11,07,07,13.80
2008,08,11,07,08,13.80
2008,08,11,07,09,13.80
2008,08,11,07,10,13.90
2008,08,11,07,11,13.90
2008,08,11,07,12,13.90
2008,08,11,07,13,13.90
2008,08,11,07,14,13.90
2008,08,11,07,15,13.90
2008,08,11,07,16,13.90
2008,08,11,07,17,13.80
2008,08,11,07,18,13.80
2008,08,11,07,19,13.90
2008,08,11,07,20,13.90
2008,08,11,07,21,13.90
2008,08,11,07,22,13.90
2008,08,11,07,23,13.90
2008,08,11,07,24,14.00
2008,08,11,07,25,14.00
2008,08,11,07,26,14.00
2008,08,11,07,27,14.10
2008,08,11,07,28,14.10
2008,08,11,07,29,14.10
2008,08,11,07,30,14.10
2008,08,11,07,31,14.20
2008,08,11,07,32,14.20
2008,08,11,07,33,14.20
2008,08,11,07,34,14.20
2008,08,11,07,35,14.20
2008,08,11,07,36,14.20
2008,08,11,07,37,14.20
2008,08,11,07,38,14.20
2008,08,11,07,39,14.20
2008,08,11,07,40,14.20
2008,08,11,07,41,14.30
2008,08,11,07,42,14.30
2008,08,11,07,43,14.30
2008,08,11,07,44,14.30
2008,08,11,07,45,14.30
2008,08,11,07,46,14.40
2008,08,11,07,47,14.40
2008,08,11,07,48,14.40
2008,08,11,07,49,14.40
2008,08,11,07,50,14.40
2008,08,11,07,51,14.50
2008,08,11,07,52,14.50
2008,08,11,07,53,14.50
2008,08,11,07,54,14.50
2008,08,11,07,55,14.50
2008,08,11,07,56,14.60
2008,08,11,07,57,14.60
2008,08,11,07,58,14.70
2008,08,11,07,59,14.70
2008,08,11,08,00,14.80
2008,08,11,08,01,14.80
2008,08,11,08,02,14.80
2008,08,11,08,03,14.90
2008,08,11,08,04,14.90
2008,08,11,08,05,14.90
2008,08,11,08,06,14.90
2008,08,11,08,07,14.90
